Location: Aalen
(48.8330°N, 10.1000°E)
Time: 08:54:28
(UTC+02:00)

Transit 2A - Pass Details

Date: 29 July 2021
Orbit: 594 x 964 km, 66.7° (Epoch: 24 September)

Event Time Altitude Azimuth Distance (km) Brightness Sun altitude
Rises 07:13:47 0° 169° (S) 2,826 8.9 12.0°
Reaches altitude 10° 07:16:35 10° 149° (SSE) 1,948 8.4 12.4°
Maximum altitude 07:19:28 18° 108° (ESE) 1,552 8.8 12.9°
Drops below altitude 10° 07:22:28 10° 66° (ENE) 2,038 10.5 13.4°
Sets 07:25:28 0° 47° (NE) 3,013 10.2 13.9°
